Flag for Germany Weather past 2 weeks in Hof (Saale), Bavaria, Germany

Now
46 °F

Overcast.


Feels Like: 43 °F
Forecast: 36 / 57 °F
Wind: 6 mph from Northwest

Location: Hof

Current Time: Sep 23, 2014 at 3:16:13 AM

Latest Report: Sep 23, 2014 at 3:00 AM


Visibility: 13 mi

Pressure: 30.08 "Hg

Humidity: 87%

Dew point: 42 °F

Location of Hof (Saale)Location

Historic Weather in Hof (Saale) — Graph

°F

Hof (Saale) temperature yesterday

Maximum temperature yesterday: 51 °F (at 12:00 AM)
Minimum temperature yesterday: 44 °F (at 10:00 PM)
Average temperature yesterday: 48 °F

Past Weeks' High & Low Weather Summary

 TemperatureHumidityPressure
High71 °F (Sep 8, 5:00 PM)100% (Sep 9, 3:00 AM)30.14 "Hg (Sep 9, 3:00 AM)
Low44 °F (Sep 22, 10:00 PM)50% (Sep 16, 5:00 PM)29.87 "Hg (Sep 21, 5:00 PM)
Average57 °F88%30.01 "Hg
* Reported Sep 8 2:00 AM — Sep 23 2:00 AM, Hof (Saale), Weather by CustomWeather, © 2014

Note: Actual official high and low records may vary slightly from our data, if they occured in-between our weather recording intervals... More about our weather records

Advertising

Hof (Saale) weather history for previous 24 hours

 ConditionsComfort  
Time TempWeatherWind HumidityBarometerVisibility
2:00 AM
Sep 23
46 °FDrizzle. Low clouds.3 mph91%30.07 "Hg9 mi
1:00 AM45 °FLight freezing rain. Low clouds.6 mph92%30.07 "Hg5 mi
12:00 AM45 °FLight freezing rain. Low clouds.5 mph94%30.06 "Hg4 mi
10:00 PM
Sep 22
44 °FLight freezing rain. Low clouds.3 mph93%30.06 "Hg6 mi
9:00 PM46 °FLight rain. Overcast.7 mph84%30.05 "Hg14 mi
8:00 PM45 °FOvercast.5 mph84%30.03 "Hg19 mi
7:00 PM46 °FPartly sunny.3 mph81%30.01 "Hg31 mi
6:00 PM46 °FPartly sunny.5 mph76%29.99 "Hg31 mi
5:00 PM46 °FScattered clouds.6 mph80%29.97 "Hg25 mi
4:00 PM45 °FLight rain. Overcast.5 mph86%29.97 "Hg14 mi
3:00 PM51 °FPartly sunny.6 mph72%29.92 "Hg9 mi
2:00 PM48 °FPartly sunny.5 mph75%29.94 "Hg12 mi
1:00 PM51 °FOvercast.7 mph74%29.94 "Hg12 mi
12:00 PM49 °FOvercast.5 mph81%29.97 "Hg11 mi
11:00 AM49 °FOvercast.5 mph81%29.98 "Hg12 mi
10:00 AM49 °FOvercast.3 mph87%29.98 "Hg7 mi
9:00 AM48 °FOvercast.5 mph89%29.98 "Hg11 mi
8:00 AM48 °FOvercast.5 mph87%29.99 "Hg9 mi
7:00 AM47 °FScattered clouds.3 mph90%29.99 "Hg9 mi
6:00 AM48 °FOvercast.3 mph93%29.99 "Hg2 mi
5:00 AM47 °FDrizzle. Low clouds.5 mph95%29.99 "Hg3 mi
4:00 AM48 °FFog.3 mph92%29.98 "Hg4 mi
3:00 AM47 °FFog.3 mph93%30.00 "Hg4 mi
Weather by CustomWeather, © 2014

See weather overviewHow to use our weather pages